| time (UTC) | temp F | wind direction | speed MPH | gust MPH | rain 1hr in | rain 24hr in | rain mn in | humidity % | barometer mb |
| 20260507090005 | 63 | 150 | 6.0 | 0.0 | 0.00 | 0.00 | 0.00 | 88 | 1013.0 |
| 20260507083004 | 63 | 90 | 5.0 | 0.0 | 0.00 | 0.00 | 0.00 | 88 | 1013.0 |
| 20260507081504 | 63 | 0 | 3.0 | 0.0 | 0.00 | 0.00 | 0.00 | 88 | 1012.0 |
| 20260507080005 | 63 | 0 | 3.0 | 0.0 | 0.00 | 0.00 | 0.00 | 88 | 1012.0 |
| 20260507074504 | 59 | 10 | 6.0 | 0.0 | 0.00 | 0.00 | 0.00 | 100 | 1012.0 |
| 20260507073004 | 59 | 10 | 6.0 | 0.0 | 0.00 | 0.00 | 0.00 | 100 | 1012.0 |
| 20260507071503 | 59 | 350 | 6.0 | 0.0 | 0.00 | 0.00 | 0.00 | 100 | 1012.0 |
| 20260507070009 | 59 | 350 | 6.0 | 0.0 | 0.00 | 0.00 | 0.00 | 100 | 1012.0 |
| 20260507064504 | 57 | 330 | 6.0 | 0.0 | 0.00 | 0.00 | 0.00 | 100 | 1012.0 |
| 20260507060004 | 57 | 340 | 5.0 | 0.0 | 0.00 | 0.00 | 0.00 | 100 | 1012.0 |
| 20260507051504 | 57 | 350 | 6.0 | 0.0 | 0.00 | 0.00 | 0.00 | 100 | 1011.0 |
| 20260507050005 | 57 | 350 | 6.0 | 0.0 | 0.00 | 0.00 | 0.00 | 100 | 1011.0 |
| 20260507044504 | 57 | 10 | 7.0 | 0.0 | 0.00 | 0.00 | 0.00 | 100 | 1011.0 |
| 20260507034504 | 57 | 350 | 6.0 | 0.0 | 0.00 | 0.00 | 0.00 | 100 | 1011.0 |
| 20260507030004 | 57 | 360 | 3.0 | 0.0 | 0.00 | 0.00 | 0.00 | 100 | 1011.0 |
| 20260507023005 | 55 | 0 | 2.0 | 0.0 | 0.00 | 0.00 | 0.00 | 100 | 1011.0 |
| 20260507021504 | 55 | 320 | 5.0 | 0.0 | 0.00 | 0.00 | 0.00 | 100 | 1011.0 |
| 20260507020004 | 55 | 320 | 5.0 | 0.0 | 0.00 | 0.00 | 0.00 | 100 | 1011.0 |
| 20260507014504 | 57 | 340 | 3.0 | 0.0 | 0.00 | 0.00 | 0.00 | 93 | 1011.0 |
| 20260507013005 | 57 | 340 | 3.0 | 0.0 | 0.00 | 0.00 | 0.00 | 93 | 1011.0 |
| 20260507010004 | 57 | 360 | 2.0 | 0.0 | 0.00 | 0.00 | 0.00 | 93 | 1011.0 |
| 20260507004504 | 57 | 320 | 3.0 | 0.0 | 0.00 | 0.00 | 0.00 | 100 | 1011.0 |
| 20260507003005 | 57 | 320 | 3.0 | 0.0 | 0.00 | 0.00 | 0.00 | 100 | 1011.0 |
| 20260507001503 | 57 | 60 | 2.0 | 0.0 | 0.00 | 0.00 | 0.00 | 100 | 1011.0 |
| 20260507000004 | 57 | 60 | 2.0 | 0.0 | 0.00 | 0.00 | 0.00 | 100 | 1011.0 |
| 20260506230004 | 57 | 0 | 2.0 | 0.0 | 0.00 | 0.00 | 0.00 | 100 | 1011.0 |
| 20260506224503 | 59 | 20 | 5.0 | 0.0 | 0.00 | 0.00 | 0.00 | 93 | 1010.0 |
| 20260506214504 | 61 | 0 | 2.0 | 0.0 | 0.00 | 0.00 | 0.00 | 93 | 1010.0 |
| 20260506211504 | 61 | 0 | 2.0 | 0.0 | 0.00 | 0.00 | 0.00 | 87 | 1010.0 |
| 20260506210005 | 61 | 0 | 2.0 | 0.0 | 0.00 | 0.00 | 0.00 | 87 | 1010.0 |
| 20260506204503 | 63 | 0 | 1.0 | 0.0 | 0.00 | 0.00 | 0.00 | 82 | 1010.0 |
| 20260506203004 | 63 | 0 | 1.0 | 0.0 | 0.00 | 0.00 | 0.00 | 82 | 1010.0 |
| 20260506201505 | 63 | 190 | 5.0 | 0.0 | 0.00 | 0.00 | 0.00 | 82 | 1010.0 |
| 20260506200005 | 63 | 190 | 5.0 | 0.0 | 0.00 | 0.00 | 0.00 | 82 | 1010.0 |
| 20260506194503 | 63 | 0 | 3.0 | 0.0 | 0.00 | 0.00 | 0.00 | 82 | 1009.0 |
| 20260506191504 | 63 | 190 | 3.0 | 0.0 | 0.00 | 0.00 | 0.00 | 88 | 1009.0 |
| 20260506184504 | 63 | 210 | 6.0 | 0.0 | 0.00 | 0.00 | 0.00 | 88 | 1009.0 |
| 20260506183005 | 63 | 210 | 6.0 | 0.0 | 0.00 | 0.00 | 0.00 | 88 | 1009.0 |
| 20260506181503 | 63 | 140 | 6.0 | 0.0 | 0.00 | 0.00 | 0.00 | 93 | 1009.0 |
| 20260506174504 | 63 | 120 | 3.0 | 0.0 | 0.00 | 0.00 | 0.00 | 93 | 1009.0 |
| 20260506173004 | 63 | 120 | 3.0 | 0.0 | 0.00 | 0.00 | 0.00 | 93 | 1009.0 |
| 20260506171503 | 63 | 170 | 5.0 | 0.0 | 0.00 | 0.00 | 0.00 | 88 | 1009.0 |
| 20260506164503 | 63 | 160 | 6.0 | 0.0 | 0.00 | 0.00 | 0.00 | 88 | 1009.0 |
| 20260506143005 | 64 | 120 | 9.0 | 0.0 | 0.00 | 0.00 | 0.00 | 88 | 1010.0 |
| 20260506141504 | 64 | 120 | 9.0 | 0.0 | 0.00 | 0.00 | 0.00 | 88 | 1010.0 |
| 20260506140005 | 64 | 120 | 9.0 | 0.0 | 0.00 | 0.00 | 0.00 | 88 | 1010.0 |
| 20260506131504 | 63 | 150 | 8.0 | 0.0 | 0.00 | 0.00 | 0.00 | 88 | 1010.0 |
| 20260506130004 | 63 | 150 | 8.0 | 0.0 | 0.00 | 0.00 | 0.00 | 88 | 1010.0 |
| 20260506124503 | 63 | 150 | 5.0 | 0.0 | 0.00 | 0.00 | 0.00 | 93 | 1011.0 |
| 20260506123005 | 63 | 140 | 5.0 | 0.0 | 0.00 | 0.00 | 0.00 | 93 | 1011.0 |
| 20260506114503 | 61 | 150 | 6.0 | 0.0 | 0.00 | 0.00 | 0.00 | 93 | 1011.0 |
| 20260506111504 | 61 | 150 | 5.0 | 0.0 | 0.00 | 0.00 | 0.00 | 93 | 1011.0 |
| 20260506110005 | 61 | 150 | 5.0 | 0.0 | 0.00 | 0.00 | 0.00 | 93 | 1011.0 |
| 20260506104504 | 63 | 160 | 3.0 | 0.0 | 0.00 | 0.00 | 0.00 | 88 | 1011.0 |
| 20260506101504 | 63 | 170 | 3.0 | 0.0 | 0.00 | 0.00 | 0.00 | 82 | 1011.0 |
| 20260506100005 | 63 | 170 | 3.0 | 0.0 | 0.00 | 0.00 | 0.00 | 82 | 1011.0 |
| 20260506091504 | 63 | 190 | 6.0 | 0.0 | 0.00 | 0.00 | 0.00 | 88 | 1011.0 |